Appleton, WI

8:55 PM CDT on April 24, 2018 (GMT -0500)
Outagamie County Regional

Weather History for KATW - June, 2013

Change the Weather History Date:

Sunday, June 2, 2013

  Actual Average Record
Temperature  
Mean Temperature 53 °F -  
Max Temperature 60 °F 72 °F 87 °F (1948)
Min Temperature 46 °F 51 °F 33 °F (2007)
Degree Days  
Heating Degree Days 12    
Growing Degree Days 3 (Base 50)    
Moisture  
Dew Point 43 °F    
Average Humidity 73    
Maximum Humidity 94    
Minimum Humidity 42    
Precipitation  
Precipitation 0.00 in - - ()
Sea Level Pressure  
Sea Level Pressure 29.88 in    
Wind  
Wind Speed 13 mph (NW)    
Max Wind Speed 21 mph    
Max Gust Speed 25 mph    
Visibility 10 miles    
Events Rain    
Averages and records for this station are not official NWS values.
T = Trace of Precipitation, MM = Missing Value Source: NWS Daily Summary

Daily Weather History Graph

Daily Weather History Graph

Search for Another Location

Airport or City:

Astronomy

Jun. 02, 2013 Rise Set
Actual Time 5:12 AM CDT 8:32 PM CDT
Civil Twilight 4:36 AM CDT 9:07 PM CDT
Nautical Twilight 3:50 AM CDT 9:54 PM CDT
Astronomical Twilight 2:52 AM CDT 10:52 PM CDT
Moon 1:51 AM CDT (6/2) 2:51 PM CDT (6/2)
Length of Visible Light 16h 30m
Length of Day
15h 19m
Waning Crescent, 30% of the Moon is Illuminated
Jun 2
Waning Crescent
Jun 8
New
Jun 16
First Quarter
Jun 23
Full
Jun 29
Last Quarter

Hourly Weather History & Observations

Time (CDT) Temp. Windchill Dew Point Humidity Pressure Visibility Wind Dir Wind Speed Gust Speed Precip Events Conditions
12:15 AM 60.8 °F - 57.2 °F 88% 29.68 in 10.0 mi NW 10.4 mph - N/A Rain Rain
12:35 AM 60.8 °F - 59.0 °F 94% 29.69 in 10.0 mi NW 17.3 mph 21.9 mph N/A Rain Light Rain
12:55 AM 57.2 °F - 53.6 °F 88% 29.70 in 10.0 mi NNW 15.0 mph 24.2 mph N/A   Overcast
1:15 AM 53.6 °F - 51.8 °F 94% 29.71 in 10.0 mi NW 20.7 mph 25.3 mph N/A   Overcast
1:35 AM 51.8 °F - 50.0 °F 94% 29.72 in 10.0 mi NNW 17.3 mph 23.0 mph N/A   Overcast
1:55 AM 51.8 °F - 48.2 °F 88% 29.73 in 10.0 mi NNW 17.3 mph 20.7 mph N/A   Overcast
2:15 AM 50.0 °F - 46.4 °F 87% 29.74 in 10.0 mi NNW 15.0 mph - N/A   Overcast
2:35 AM 50.0 °F - 46.4 °F 87% 29.75 in 10.0 mi NNW 11.5 mph 20.7 mph N/A   Overcast
2:55 AM 50.0 °F - 46.4 °F 87% 29.76 in 10.0 mi NNW 12.7 mph - N/A   Overcast
3:15 AM 50.0 °F - 44.6 °F 82% 29.78 in 10.0 mi NW 13.8 mph 19.6 mph N/A   Overcast
3:35 AM 48.2 °F - 44.6 °F 87% 29.79 in 7.0 mi NNW 12.7 mph 17.3 mph N/A   Overcast
3:55 AM 46.4 °F 40.1 °F 42.8 °F 87% 29.79 in 10.0 mi NNW 15.0 mph - N/A   Overcast
4:15 AM 46.4 °F 40.4 °F 41.0 °F 81% 29.81 in 10.0 mi NW 13.8 mph - N/A   Overcast
4:35 AM 46.4 °F 40.7 °F 41.0 °F 81% 29.82 in 10.0 mi NNW 12.7 mph - N/A   Overcast
5:15 AM 46.4 °F 40.4 °F 37.4 °F 71% 29.83 in 10.0 mi NNW 13.8 mph 18.4 mph N/A   Overcast
5:45 AM 46.4 °F 40.7 °F 39.2 °F 76% 29.85 in 10.0 mi NNW 12.7 mph 19.6 mph N/A   Overcast
6:45 AM 46.4 °F 41.1 °F 37.4 °F 71% 29.88 in 10.0 mi NW 11.5 mph 19.6 mph N/A   Mostly Cloudy
7:45 AM 46.4 °F 39.5 °F 37.4 °F 71% 29.92 in 10.0 mi NNW 17.3 mph 23.0 mph N/A   Overcast
8:45 AM 46.4 °F 40.4 °F 37.4 °F 71% 29.93 in 10.0 mi NW 13.8 mph 21.9 mph N/A   Overcast
9:45 AM 50.0 °F - 39.2 °F 66% 29.95 in 10.0 mi NNW 15.0 mph 19.6 mph N/A   Mostly Cloudy
11:45 AM 51.8 °F - 39.2 °F 62% 29.98 in 10.0 mi NW 11.5 mph - N/A   Mostly Cloudy
12:45 PM 53.6 °F - 39.2 °F 58% 29.98 in 10.0 mi NW 13.8 mph - N/A   Mostly Cloudy
1:45 PM 55.4 °F - 42.8 °F 63% 29.99 in 10.0 mi WNW 10.4 mph - N/A   Mostly Cloudy
2:45 PM 57.2 °F - 41.0 °F 55% 29.99 in 10.0 mi North 8.1 mph - N/A   Mostly Cloudy
3:45 PM 60.8 °F - 39.2 °F 45% 29.99 in 10.0 mi NNW 6.9 mph - N/A   Mostly Cloudy
4:45 PM 60.8 °F - 39.2 °F 45% 29.98 in 10.0 mi NNW 8.1 mph - N/A   Mostly Cloudy
5:45 PM 60.8 °F - 37.4 °F 42% 29.98 in 10.0 mi NW 8.1 mph - N/A   Scattered Clouds
6:45 PM 59.0 °F - 39.2 °F 48% 29.99 in 10.0 mi WNW 5.8 mph - N/A   Scattered Clouds
7:45 PM 57.2 °F - 39.2 °F 51% 30.00 in 10.0 mi WNW 5.8 mph - N/A   Scattered Clouds
8:45 PM 57.2 °F - 41.0 °F 55% 30.01 in 10.0 mi Calm Calm - N/A   Clear
9:45 PM 51.8 °F - 41.0 °F 67% 30.02 in 10.0 mi West 3.5 mph - N/A   Scattered Clouds
10:45 PM 50.0 °F - 42.8 °F 76% 30.02 in 10.0 mi West 6.9 mph - N/A   Scattered Clouds
10:55 PM 48.2 °F - 41.0 °F 76% 30.02 in 10.0 mi West 8.1 mph - N/A   Clear
11:15 PM 46.4 °F 41.9 °F 41.0 °F 81% 30.02 in 10.0 mi WNW 9.2 mph - N/A   Clear
11:35 PM 46.4 °F 42.4 °F 41.0 °F 81% 30.02 in 10.0 mi WNW 8.1 mph - N/A   Clear
11:55 PM 46.4 °F 43.5 °F 41.0 °F 81% 30.02 in 10.0 mi NW 5.8 mph - N/A   Clear